Wind_Speed
20 20 19 18 19 19 19 19 19 19 19 19 18 18 17 17 17 16 16 16 17 16 16 16 16 16 17 17 17 18 18 18 19 19 20 20 21 21 21 21 21 21 22
22 21 20 19 19 19 19 19 19 19 19 20 20 19 18 19 19 18 17 17 17 16 17 17 17 17 18 18 18 18 19 20 20 20 21 21 22 22 22 23 22 22 22
22 21 21 20 20 20 20 20 20 20 21 20 20 20 19 19 19 18 17 17 17 17 17 17 17 18 18 19 18 19 20 21 21 22 22 22 22 22 23 23 23 23 23
23 22 22 21 20 20 21 21 21 21 21 21 21 21 20 20 19 19 18 18 17 17 17 18 18 18 18 19 19 19 20 22 22 21 21 21 22 22 23 24 24 25 25
22 22 22 21 21 21 22 22 22 22 21 21 21 21 20 20 19 19 19 18 18 17 17 17 17 17 17 18 19 19 20 21 22 21 21 21 21 22 22 23 24 25 25
22 21 22 22 22 22 21 21 22 22 21 21 21 21 20 20 19 19 19 18 18 18 17 17 17 17 18 18 19 19 19 20 20 20 21 21 20 21 22 22 24 24 24
22 22 22 22 22 22 22 22 22 21 22 21 21 21 21 21 20 20 19 19 19 19 18 18 18 19 19 19 19 19 19 19 20 20 20 20 21 22 22 22 23 23 23
22 22 22 22 23 23 23 22 23 23 23 22 22 21 21 21 21 20 20 20 20 20 20 20 20 19 20 20 20 19 19 19 19 19 20 20 20 21 23 23 23 23 23
22 21 22 22 23 23 23 23 23 23 23 23 22 22 21 21 21 21 21 21 21 21 21 22 21 21 20 20 20 19 19 20 20 21 20 21 21 21 22 23 23 23 23
23 22 22 23 22 22 23 23 23 23 23 23 23 22 22 21 21 21 21 21 21 21 22 22 22 21 21 21 21 20 20 20 21 21 21 21 21 22 22 22 21 21 21
25 24 24 23 23 23 23 23 23 23 23 23 23 22 21 21 21 21 21 21 22 22 21 21 21 21 21 22 22 20 20 21 21 21 21 21 21 21 21 22 22 21 22
25 24 24 23 23 23 23 23 23 23 23 23 23 22 22 22 21 21 22 21 21 20 20 20 21 21 22 22 21 21 20 20 20 20 20 20 20 21 21 21 21 21 21
24 23 23 23 23 24 24 24 23 23 24 24 23 22 22 22 22 23 22 21 20 20 20 21 21 21 21 21 21 21 20 20 20 20 20 19 19 20 20 20 19 20 21
25 24 24 25 24 25 24 24 23 23 23 23 23 22 22 22 22 22 22 21 21 20 21 21 21 21 21 20 20 20 20 19 19 19 19 19 19 18 18 19 19 20 21
27 27 26 26 25 25 25 24 23 23 22 22 22 22 22 23 22 22 22 21 21 20 21 20 20 20 20 19 20 19 19 20 20 20 19 19 18 19 18 18 18 19 20
27 26 26 26 26 25 24 24 23 23 23 22 23 23 22 22 22 22 22 21 21 21 19 19 19 19 19 19 19 19 19 19 20 20 19 19 19 19 19 19 19 19 19
28 27 26 26 26 25 25 24 24 24 23 23 23 23 22 22 22 22 22 21 21 20 19 18 18 18 18 18 18 19 19 20 20 20 20 19 19 20 20 20 20 21 21
27 26 26 26 26 26 25 25 24 24 24 24 23 22 22 22 22 22 22 21 21 21 20 19 18 18 18 18 18 18 19 20 20 20 20 20 21 21 21 21 21 21 21
26 26 25 25 25 25 25 25 25 24 24 23 23 23 23 23 22 22 22 22 22 21 20 20 20 19 19 19 19 19 19 20 20 20 20 21 21 21 21 21 21 21 20
25 25 25 24 24 24 24 24 24 23 23 23 23 23 23 23 23 22 22 22 22 22 21 21 20 20 21 20 20 20 20 20 20 20 19 19 19 20 20 20 21 20 19
24 24 24 24 24 24 24 24 23 23 23 23 22 22 22 22 22 22 22 22 22 21 22 22 22 22 22 22 21 21 21 21 21 20 19 19 19 19 19 19 19 19 18
22 23 23 24 24 24 23 23 23 24 23 23 22 22 22 22 22 22 22 22 22 21 21 21 22 21 21 21 22 22 22 21 21 20 19 19 19 19 19 18 18 18 18
23 23 23 23 23 23 23 23 23 23 23 22 22 22 22 22 22 22 22 22 22 21 22 22 22 22 22 22 22 22 21 20 20 20 19 19 19 19 18 18 17 17 17
22 23 23 22 22 23 22 22 22 23 22 22 21 22 22 22 22 22 22 22 22 22 22 22 23 23 23 23 22 22 21 21 20 20 19 19 19 19 18 18 17 17 16
21 21 21 21 21 22 22 21 21 21 22 22 22 21 21 21 22 22 22 22 22 22 22 22 23 23 22 23 22 22 22 22 22 21 20 20 19 19 19 18 18 17 16
20 20 20 20 21 21 21 20 20 21 21 22 22 22 22 22 22 22 22 22 22 23 23 23 23 23 23 23 23 23 22 22 22 21 21 21 20 20 19 20 19 19 18
Wind_Direction
287 287 284 287 286 289 290 291 294 298 299 301 299 300 301 300 299 295 292 290 288 289 289 288 286 284 282 280 277 274 273 271 272 273 272 272 272 271 271 271 269 268 269
287 287 286 287 286 287 287 290 293 295 297 300 300 298 297 298 296 292 292 293 291 290 290 288 287 286 283 281 279 276 273 270 273 275 274 272 273 271 270 270 270 270 271
284 286 287 285 284 284 285 288 291 293 295 297 298 297 296 296 295 291 290 292 292 290 292 291 287 286 284 281 279 278 275 274 274 275 275 273 273 272 271 270 270 271 272
283 282 285 285 281 281 282 284 287 290 291 293 293 295 294 294 293 290 288 288 291 291 291 291 289 287 286 283 280 278 277 276 276 276 278 275 274 274 273 272 271 271 271
283 282 284 285 283 282 281 283 284 286 288 289 289 292 293 293 293 289 287 288 290 291 292 290 290 290 289 286 284 282 280 280 279 278 278 278 277 276 274 272 273 272 270
282 282 283 284 282 284 283 283 283 284 286 287 288 290 291 292 291 289 286 286 288 290 290 290 291 290 290 288 286 286 283 281 280 280 280 278 278 276 275 274 272 272 271
284 282 283 284 283 284 285 283 284 283 284 286 289 290 290 290 291 288 284 284 287 289 290 292 292 292 290 289 288 287 284 281 281 281 280 278 278 278 277 277 276 275 274
283 282 283 283 283 283 283 283 284 286 285 286 287 288 290 289 289 287 285 285 286 288 289 291 292 292 292 290 289 288 285 282 282 281 280 281 282 280 279 279 280 277 276
282 282 283 284 283 282 281 283 283 285 284 285 285 286 287 288 287 286 284 284 285 286 288 289 290 290 291 290 288 287 285 283 281 282 284 285 285 285 284 283 281 279 278
282 282 284 285 283 283 282 283 284 285 286 285 286 287 286 285 284 284 284 284 285 286 287 287 286 287 289 290 289 286 285 284 283 284 285 286 286 285 285 285 283 281 282
280 281 282 283 283 283 284 284 284 286 286 284 286 286 285 283 283 284 284 285 285 286 287 287 287 287 288 289 289 285 284 285 286 287 287 287 286 285 285 285 284 283 282
280 280 281 283 283 282 283 283 283 285 284 284 284 284 283 282 283 284 286 285 285 286 286 288 289 289 290 290 289 286 284 286 288 289 289 288 286 285 285 285 285 284 283
280 279 280 283 283 282 281 281 281 282 282 282 281 282 282 282 283 285 285 284 284 285 285 287 288 288 291 291 291 289 286 286 287 288 289 289 288 287 286 287 286 286 284
277 279 280 282 281 280 279 280 280 281 281 279 279 280 281 281 282 284 284 284 284 285 286 287 287 289 291 291 290 288 288 287 288 288 287 288 289 289 290 291 291 290 289
277 279 280 280 280 279 279 278 278 280 279 277 277 277 279 280 280 281 283 282 283 285 288 287 287 290 290 290 289 289 289 290 288 286 286 286 287 287 289 291 294 294 294
275 278 280 281 281 280 280 278 277 278 278 278 277 277 278 279 278 279 281 281 283 285 288 288 287 289 290 290 289 288 288 288 287 285 285 285 286 286 288 291 292 293 294
273 275 278 279 280 281 280 278 276 278 279 278 278 278 277 278 278 277 278 281 282 283 284 285 286 288 289 290 289 288 287 287 286 284 283 283 284 286 289 291 291 290 290
273 273 274 276 277 279 279 279 278 277 277 275 276 276 275 275 276 276 276 278 280 280 280 281 282 285 288 288 289 288 289 289 287 285 283 283 285 287 290 292 292 290 288
272 272 273 274 276 276 278 279 279 277 275 273 272 272 271 272 273 274 274 276 277 277 277 279 280 283 286 287 288 289 290 290 289 288 287 286 288 289 290 290 291 291 289
271 273 273 274 275 276 278 279 277 275 274 274 272 271 271 270 272 273 274 275 275 275 275 276 277 279 282 284 286 287 288 288 288 288 289 289 290 291 292 292 292 291 290
271 272 272 273 275 276 276 278 275 272 272 272 273 273 272 272 274 275 275 274 273 275 275 275 275 277 279 282 283 283 284 285 286 287 288 289 291 293 293 293 293 291 290
268 269 272 274 275 276 275 275 274 272 271 271 272 273 273 273 275 276 276 275 274 274 274 275 275 277 279 281 282 283 283 284 283 284 286 286 288 291 293 293 293 290 288
268 270 273 274 274 276 275 275 275 272 271 271 270 269 270 272 274 275 276 275 275 275 275 276 276 277 278 280 282 282 282 283 282 283 284 284 286 289 293 295 293 289 286
268 271 273 274 275 275 277 277 275 273 273 273 271 271 270 271 272 274 274 274 274 276 277 277 276 278 279 279 280 280 280 281 282 282 282 284 285 287 291 294 293 290 287
271 273 274 275 277 277 277 277 274 272 271 270 269 270 272 272 272 273 272 273 274 275 276 276 276 277 277 277 278 279 279 281 282 282 281 282 283 285 287 290 291 289 285
271 273 274 276 276 277 278 278 275 274 273 272 270 270 271 272 272 271 272 273 275 275 275 276 277 278 277 276 277 279 279 280 282 283 281 280 280 282 285 286 287 284 282
Height
5841 5838 5837 5837 5836 5835 5834 5833 5832 5830 5828 5826 5824 5822 5820 5817 5815 5813 5812 5811 5809 5808 5807 5805 5804 5804 5803 5802 5801 5801 5800 5800 5800 5799 5798 5798 5797 5796 5796 5795 5794 5794 5793
5836 5834 5832 5832 5831 5830 5829 5828 5827 5825 5823 5821 5819 5817 5815 5813 5810 5809 5807 5806 5804 5803 5802 5800 5799 5799 5798 5797 5796 5795 5795 5794 5794 5793 5793 5792 5791 5790 5789 5789 5788 5787 5787
5830 5829 5828 5826 5825 5824 5823 5822 5821 5819 5818 5816 5814 5812 5809 5807 5804 5803 5802 5801 5799 5798 5797 5796 5794 5793 5792 5791 5790 5789 5788 5788 5787 5787 5786 5785 5784 5783 5783 5782 5781 5780 5780
5824 5823 5822 5820 5819 5818 5817 5816 5815 5814 5812 5810 5808 5806 5804 5801 5799 5797 5796 5795 5794 5793 5792 5791 5790 5788 5787 5785 5784 5783 5782 5782 5781 5780 5779 5778 5778 5777 5776 5775 5774 5773 5773
5817 5816 5815 5814 5812 5811 5811 5810 5809 5808 5806 5804 5802 5800 5798 5796 5794 5793 5791 5790 5789 5788 5787 5786 5784 5783 5782 5780 5779 5777 5776 5775 5774 5774 5773 5772 5771 5770 5769 5768 5767 5766 5765
5810 5809 5808 5807 5806 5805 5804 5803 5802 5801 5800 5798 5796 5794 5793 5791 5789 5788 5786 5785 5784 5783 5782 5780 5779 5778 5776 5774 5773 5771 5770 5769 5768 5767 5766 5765 5764 5763 5762 5761 5760 5759 5759
5803 5802 5801 5801 5800 5799 5798 5797 5796 5795 5793 5791 5790 5788 5787 5785 5784 5782 5781 5780 5778 5777 5776 5775 5773 5772 5770 5768 5767 5765 5764 5763 5762 5761 5760 5758 5757 5756 5755 5754 5753 5752 5751
5796 5796 5795 5794 5793 5792 5791 5790 5789 5788 5787 5785 5784 5782 5781 5779 5778 5776 5775 5774 5773 5771 5770 5769 5768 5766 5764 5762 5761 5759 5758 5756 5755 5754 5754 5752 5750 5749 5747 5746 5745 5744 5743
5789 5789 5788 5787 5786 5785 5784 5783 5782 5781 5780 5779 5777 5776 5775 5773 5772 5770 5769 5768 5766 5765 5764 5762 5761 5760 5758 5756 5754 5753 5752 5750 5749 5748 5746 5744 5743 5741 5739 5738 5737 5736 5735
5782 5781 5780 5779 5778 5778 5777 5776 5775 5774 5773 5772 5771 5769 5768 5767 5765 5764 5762 5761 5760 5759 5757 5756 5754 5753 5751 5749 5748 5746 5745 5744 5742 5741 5739 5737 5736 5734 5732 5730 5729 5728 5727
5775 5774 5773 5772 5771 5770 5770 5769 5768 5767 5766 5765 5764 5762 5761 5760 5759 5757 5756 5755 5754 5752 5751 5749 5748 5746 5744 5742 5740 5739 5738 5737 5735 5734 5732 5730 5729 5727 5725 5723 5722 5721 5719
5768 5767 5766 5765 5764 5763 5762 5762 5761 5760 5759 5758 5757 5755 5754 5753 5752 5751 5750 5748 5747 5746 5744 5743 5741 5739 5737 5735 5733 5732 5731 5730 5729 5727 5725 5723 5722 5720 5718 5716 5715 5713 5712
5760 5759 5759 5758 5757 5756 5755 5755 5754 5753 5752 5751 5750 5749 5748 5747 5745 5744 5743 5742 5740 5739 5738 5736 5734 5732 5730 5728 5727 5725 5724 5723 5722 5720 5719 5717 5715 5713 5711 5710 5709 5707 5705
5753 5752 5752 5751 5750 5749 5748 5747 5746 5745 5744 5743 5743 5742 5741 5740 5739 5738 5736 5735 5734 5732 5731 5729 5728 5726 5724 5722 5720 5718 5717 5716 5715 5714 5713 5711 5709 5708 5706 5705 5703 5702 5700
5745 5744 5743 5742 5742 5741 5740 5739 5739 5738 5737 5736 5736 5735 5734 5733 5732 5731 5729 5728 5727 5726 5724 5723 5721 5719 5717 5715 5714 5712 5711 5710 5709 5708 5707 5705 5704 5703 5701 5700 5698 5696 5694
5737 5737 5736 5735 5734 5733 5732 5731 5730 5730 5730 5729 5728 5727 5726 5726 5724 5724 5723 5722 5721 5720 5718 5717 5715 5713 5711 5710 5708 5707 5706 5704 5703 5702 5701 5700 5698 5697 5696 5694 5692 5691 5689
5728 5728 5728 5727 5726 5725 5724 5724 5723 5723 5722 5721 5720 5720 5719 5718 5717 5717 5716 5715 5714 5713 5713 5711 5710 5708 5707 5705 5703 5702 5701 5699 5698 5697 5696 5695 5693 5692 5690 5689 5687 5685 5683
5720 5720 5719 5719 5718 5717 5717 5716 5715 5715 5714 5714 5713 5712 5712 5711 5710 5710 5709 5709 5708 5707 5706 5705 5704 5703 5702 5700 5698 5697 5695 5694 5693 5691 5690 5689 5688 5686 5684 5682 5681 5678 5677
5711 5711 5711 5710 5710 5710 5709 5708 5708 5707 5706 5706 5705 5705 5704 5704 5703 5702 5702 5702 5701 5701 5700 5699 5698 5697 5696 5695 5693 5692 5690 5689 5687 5686 5684 5683 5681 5680 5678 5676 5674 5672 5670
5703 5703 5703 5703 5702 5702 5701 5700 5700 5699 5699 5698 5698 5697 5697 5696 5696 5695 5695 5695 5694 5694 5694 5693 5692 5691 5690 5689 5688 5686 5685 5683 5682 5680 5679 5677 5675 5674 5672 5670 5668 5666 5664
5696 5696 5695 5695 5695 5694 5693 5692 5691 5691 5690 5690 5690 5689 5689 5689 5689 5688 5688 5688 5687 5687 5686 5686 5686 5685 5684 5683 5682 5680 5679 5677 5676 5674 5673 5672 5670 5668 5666 5664 5662 5660 5659
5688 5688 5688 5688 5687 5686 5685 5685 5684 5683 5682 5682 5682 5682 5681 5681 5681 5681 5681 5680 5680 5680 5679 5679 5679 5678 5677 5676 5675 5674 5673 5671 5670 5669 5667 5666 5664 5662 5660 5658 5656 5655 5653
5681 5681 5680 5680 5679 5679 5678 5677 5676 5676 5675 5675 5675 5674 5674 5674 5674 5674 5674 5673 5673 5673 5672 5672 5672 5671 5670 5669 5668 5667 5666 5665 5663 5662 5661 5660 5658 5657 5655 5653 5651 5649 5648
5674 5673 5673 5672 5672 5671 5670 5670 5669 5668 5668 5668 5668 5668 5667 5667 5667 5667 5666 5666 5666 5666 5665 5665 5664 5664 5663 5662 5661 5660 5659 5658 5657 5656 5655 5653 5652 5651 5649 5647 5645 5644 5642
5667 5666 5666 5666 5665 5664 5663 5662 5662 5661 5661 5661 5661 5660 5660 5660 5660 5659 5659 5659 5658 5658 5658 5657 5657 5656 5655 5654 5654 5653 5652 5651 5650 5649 5648 5647 5646 5644 5643 5641 5640 5638 5637
5660 5659 5659 5659 5658 5657 5656 5656 5655 5654 5654 5654 5653 5653 5653 5652 5652 5652 5652 5651 5651 5651 5650 5650 5649 5648 5648 5647 5647 5646 5645 5643 5642 5641 5640 5640 5639 5638 5636 5635 5634 5632 5631